Time,TemperatureF,DewpointF,PressureIn,WindDirection,WindDirectionDegrees,WindSpeedMPH,WindSpeedGustMPH,Humidity,HourlyPrecipIn,Conditions,Clouds,dailyrainin,SoftwareType,DateUTC
2013-01-12 00:02:00,12.0,6.0,-100.00,South,175,2.0,4.0,77,-99.99,,,-99.99,,2013-01-12 07:02:00,
2013-01-12 00:12:00,12.0,6.0,-100.00,North,5,2.0,4.0,77,-99.99,,,-99.99,,2013-01-12 07:12:00,
2013-01-12 00:22:00,11.0,6.0,-100.00,NE,55,2.0,4.0,77,-99.99,,,-99.99,,2013-01-12 07:22:00,
2013-01-12 00:32:00,11.0,6.0,-100.00,NE,40,2.0,3.0,77,-99.99,,,-99.99,,2013-01-12 07:32:00,
2013-01-12 00:42:00,11.0,6.0,-100.00,North,0,0.0,4.0,77,-99.99,,,-99.99,,2013-01-12 07:42:00,
2013-01-12 00:52:00,11.0,6.0,-100.00,NNE,20,1.0,2.0,77,-99.99,,,-99.99,,2013-01-12 07:52:00,
2013-01-12 01:02:00,11.0,6.0,-100.00,NNE,20,0.0,0.0,77,-99.99,,,-99.99,,2013-01-12 08:02:00,
2013-01-12 01:11:00,11.0,6.0,-100.00,North,350,0.0,0.0,77,-99.99,,,-99.99,,2013-01-12 08:11:00,
2013-01-12 01:22:00,11.0,6.0,-100.00,North,350,1.0,1.0,78,-99.99,,,-99.99,,2013-01-12 08:22:00,
2013-01-12 01:32:00,11.0,6.0,-100.00,ENE,70,1.0,2.0,79,-99.99,,,-99.99,,2013-01-12 08:32:00,
2013-01-12 01:42:00,11.0,6.0,-100.00,ENE,65,1.0,2.0,79,-99.99,,,-99.99,,2013-01-12 08:42:00,
2013-01-12 01:52:00,10.0,5.0,-100.00,ENE,70,2.0,4.0,79,-99.99,,,-99.99,,2013-01-12 08:52:00,
2013-01-12 02:02:00,9.0,4.0,-100.00,ESE,110,1.0,4.0,79,-99.99,,,-99.99,,2013-01-12 09:02:00,
2013-01-12 02:12:00,8.0,3.0,-100.00,South,190,0.0,2.0,79,-99.99,,,-99.99,,2013-01-12 09:12:00,
2013-01-12 02:22:00,8.0,3.0,-100.00,South,190,0.0,2.0,79,-99.99,,,-99.99,,2013-01-12 09:22:00,
2013-01-12 02:32:00,8.0,3.0,-100.00,South,190,0.0,2.0,79,-99.99,,,-99.99,,2013-01-12 09:32:00,
2013-01-12 02:42:00,8.0,3.0,-100.00,South,190,0.0,2.0,79,-99.99,,,-99.99,,2013-01-12 09:42:00,
2013-01-12 02:53:00,5.0,1.0,-100.00,SW,235,0.0,2.0,81,-99.99,,,-99.99,,2013-01-12 09:53:00,
2013-01-12 03:02:00,5.0,1.0,-100.00,West,270,0.0,0.0,81,-99.99,,,-99.99,,2013-01-12 10:02:00,
2013-01-12 03:11:00,5.0,1.0,-100.00,NE,40,0.0,2.0,82,-99.99,,,-99.99,,2013-01-12 10:11:00,
2013-01-12 03:22:00,4.0,0.0,-100.00,NE,40,0.0,1.0,82,-99.99,,,-99.99,,2013-01-12 10:22:00,
2013-01-12 03:32:00,5.0,1.0,-100.00,East,100,0.0,2.0,83,-99.99,,,-99.99,,2013-01-12 10:32:00,
2013-01-12 03:42:00,5.0,1.0,-100.00,East,100,0.0,1.0,83,-99.99,,,-99.99,,2013-01-12 10:42:00,
2013-01-12 03:52:00,5.0,1.0,-100.00,East,100,0.0,1.0,83,-99.99,,,-99.99,,2013-01-12 10:52:00,
2013-01-12 04:02:00,5.0,1.0,-100.00,East,100,0.0,0.0,83,-99.99,,,-99.99,,2013-01-12 11:02:00,
2013-01-12 04:12:00,5.0,2.0,-100.00,ESE,110,1.0,2.0,84,-99.99,,,-99.99,,2013-01-12 11:12:00,
2013-01-12 04:22:00,5.0,2.0,-100.00,ESE,115,1.0,3.0,84,-99.99,,,-99.99,,2013-01-12 11:22:00,
2013-01-12 04:32:00,6.0,2.0,-100.00,East,90,0.0,3.0,84,-99.99,,,-99.99,,2013-01-12 11:32:00,
2013-01-12 04:42:00,5.0,2.0,-100.00,East,85,1.0,3.0,84,-99.99,,,-99.99,,2013-01-12 11:42:00,
2013-01-12 04:52:00,6.0,2.0,-100.00,East,80,0.0,2.0,84,-99.99,,,-99.99,,2013-01-12 11:52:00,
2013-01-12 05:02:00,5.0,2.0,-100.00,ESE,110,2.0,4.0,84,-99.99,,,-99.99,,2013-01-12 12:02:00,
2013-01-12 05:12:00,5.0,1.0,-100.00,East,85,1.0,2.0,84,-99.99,,,-99.99,,2013-01-12 12:12:00,
2013-01-12 05:22:00,5.0,1.0,-100.00,ENE,65,0.0,0.0,84,-99.99,,,-99.99,,2013-01-12 12:22:00,
2013-01-12 05:32:00,4.0,1.0,-100.00,ENE,65,1.0,1.0,84,-99.99,,,-99.99,,2013-01-12 12:32:00,
2013-01-12 05:42:00,4.0,1.0,-100.00,ENE,65,0.0,2.0,85,-99.99,,,-99.99,,2013-01-12 12:42:00,
2013-01-12 05:52:00,3.0,-1.0,-100.00,NE,55,1.0,2.0,85,-99.99,,,-99.99,,2013-01-12 12:52:00,
2013-01-12 06:02:00,3.0,-1.0,-100.00,NE,55,1.0,2.0,85,-99.99,,,-99.99,,2013-01-12 13:02:00,
2013-01-12 06:12:00,2.0,-1.0,-100.00,North,5,1.0,2.0,85,-99.99,,,-99.99,,2013-01-12 13:12:00,
2013-01-12 06:22:00,1.0,-2.0,-100.00,North,0,0.0,1.0,86,-99.99,,,-99.99,,2013-01-12 13:22:00,
2013-01-12 06:32:00,0.0,-3.0,-100.00,North,0,1.0,1.0,86,-99.99,,,-99.99,,2013-01-12 13:32:00,
2013-01-12 06:42:00,0.0,-3.0,-100.00,NW,315,2.0,4.0,86,-99.99,,,-99.99,,2013-01-12 13:42:00,
2013-01-12 06:52:00,-1.0,-4.0,-100.00,NNW,335,0.0,3.0,86,-99.99,,,-99.99,,2013-01-12 13:52:00,
2013-01-12 07:02:00,-1.0,-4.0,-100.00,NNW,335,0.0,1.0,86,-99.99,,,-99.99,,2013-01-12 14:02:00,
2013-01-12 07:12:00,-1.0,-4.0,-100.00,NNW,335,0.0,0.0,86,-99.99,,,-99.99,,2013-01-12 14:12:00,
2013-01-12 07:22:00,-1.0,-4.0,-100.00,NNW,335,0.0,0.0,86,-99.99,,,-99.99,,2013-01-12 14:22:00,
2013-01-12 07:32:00,0.0,-3.0,-100.00,NNW,335,0.0,0.0,87,-99.99,,,-99.99,,2013-01-12 14:32:00,
2013-01-12 07:43:00,0.0,-3.0,-100.00,NNW,335,0.0,0.0,87,-99.99,,,-99.99,,2013-01-12 14:43:00,
2013-01-12 07:53:00,0.0,-3.0,-100.00,NNW,335,1.0,1.0,87,-99.99,,,-99.99,,2013-01-12 14:53:00,
2013-01-12 08:03:00,0.0,-3.0,-100.00,NNW,335,1.0,2.0,87,-99.99,,,-99.99,,2013-01-12 15:03:00,
2013-01-12 08:12:00,0.0,-3.0,-100.00,WSW,240,1.0,2.0,87,-99.99,,,-99.99,,2013-01-12 15:12:00,
2013-01-12 08:22:00,1.0,-2.0,-100.00,SE,140,0.0,1.0,87,-99.99,,,-99.99,,2013-01-12 15:22:00,
2013-01-12 08:33:00,1.0,-2.0,-100.00,SE,140,0.0,1.0,87,-99.99,,,-99.99,,2013-01-12 15:33:00,
2013-01-12 08:42:00,2.0,-1.0,-100.00,SE,135,1.0,2.0,87,-99.99,,,-99.99,,2013-01-12 15:42:00,
2013-01-12 08:52:00,3.0,0.0,-100.00,South,175,1.0,2.0,87,-99.99,,,-99.99,,2013-01-12 15:52:00,
2013-01-12 09:02:00,3.0,1.0,-100.00,SSW,205,1.0,3.0,87,-99.99,,,-99.99,,2013-01-12 16:02:00,
2013-01-12 09:12:00,4.0,1.0,-100.00,South,175,1.0,2.0,86,-99.99,,,-99.99,,2013-01-12 16:12:00,
2013-01-12 09:22:00,5.0,1.0,-100.00,SSE,160,1.0,2.0,85,-99.99,,,-99.99,,2013-01-12 16:22:00,
2013-01-12 09:32:00,5.0,1.0,-100.00,ENE,75,1.0,2.0,83,-99.99,,,-99.99,,2013-01-12 16:32:00,
2013-01-12 09:42:00,6.0,2.0,-100.00,East,80,0.0,2.0,82,-99.99,,,-99.99,,2013-01-12 16:42:00,
2013-01-12 09:52:00,7.0,3.0,-100.00,ESE,110,0.0,2.0,80,-99.99,,,-99.99,,2013-01-12 16:52:00,
2013-01-12 10:02:00,8.0,2.0,-100.00,ENE,70,2.0,3.0,78,-99.99,,,-99.99,,2013-01-12 17:02:00,
2013-01-12 10:12:00,10.0,4.0,-100.00,East,85,3.0,4.0,76,-99.99,,,-99.99,,2013-01-12 17:12:00,
2013-01-12 10:22:00,16.0,6.0,-100.00,East,90,2.0,4.0,65,-99.99,,,-99.99,,2013-01-12 17:22:00,
2013-01-12 10:32:00,17.0,6.0,-100.00,East,90,2.0,4.0,60,-99.99,,,-99.99,,2013-01-12 17:32:00,
2013-01-12 10:53:00,18.0,5.0,-100.00,East,95,2.0,5.0,57,-99.99,,,-99.99,,2013-01-12 17:53:00,
2013-01-12 11:02:00,19.0,5.0,-100.00,SE,140,1.0,4.0,53,-99.99,,,-99.99,,2013-01-12 18:02:00,
2013-01-12 11:12:00,19.0,4.0,-100.00,East,100,2.0,4.0,51,-99.99,,,-99.99,,2013-01-12 18:12:00,
2013-01-12 11:22:00,20.0,4.0,-100.00,ESE,105,2.0,4.0,50,-99.99,,,-99.99,,2013-01-12 18:22:00,
2013-01-12 11:33:00,16.0,1.0,-100.00,SE,130,1.0,4.0,49,-99.99,,,-99.99,,2013-01-12 18:33:00,
2013-01-12 11:42:00,17.0,2.0,-100.00,SSE,150,2.0,3.0,50,-99.99,,,-99.99,,2013-01-12 18:42:00,
2013-01-12 11:52:00,16.0,1.0,-100.00,East,85,1.0,2.0,50,-99.99,,,-99.99,,2013-01-12 18:52:00,
2013-01-12 12:03:00,15.0,0.0,-100.00,East,90,0.0,1.0,51,-99.99,,,-99.99,,2013-01-12 19:03:00,
2013-01-12 12:12:00,16.0,1.0,-100.00,NW,310,0.0,3.0,52,-99.99,,,-99.99,,2013-01-12 19:12:00,
2013-01-12 12:22:00,16.0,2.0,-100.00,ESE,105,1.0,2.0,52,-99.99,,,-99.99,,2013-01-12 19:22:00,
2013-01-12 12:32:00,16.0,2.0,-100.00,East,100,1.0,2.0,53,-99.99,,,-99.99,,2013-01-12 19:32:00,
2013-01-12 12:42:00,16.0,2.0,-100.00,ESE,105,1.0,2.0,53,-99.99,,,-99.99,,2013-01-12 19:42:00,
2013-01-12 12:52:00,19.0,4.0,-100.00,SE,130,1.0,2.0,52,-99.99,,,-99.99,,2013-01-12 19:52:00,
2013-01-12 13:02:00,21.0,5.0,-100.00,ESE,110,1.0,3.0,49,-99.99,,,-99.99,,2013-01-12 20:02:00,
2013-01-12 13:12:00,22.0,6.0,-100.00,ENE,65,1.0,3.0,48,-99.99,,,-99.99,,2013-01-12 20:12:00,
2013-01-12 13:22:00,24.0,7.0,-100.00,East,85,4.0,4.0,47,-99.99,,,-99.99,,2013-01-12 20:22:00,
2013-01-12 13:32:00,25.0,6.0,-100.00,NE,45,3.0,6.0,45,-99.99,,,-99.99,,2013-01-12 20:32:00,
2013-01-12 13:42:00,26.0,6.0,-100.00,SSW,210,3.0,9.0,42,-99.99,,,-99.99,,2013-01-12 20:42:00,
2013-01-12 13:53:00,27.0,4.0,-100.00,SSW,210,7.0,12.0,38,-99.99,,,-99.99,,2013-01-12 20:53:00,
2013-01-12 14:02:00,27.0,3.0,-100.00,SSW,210,7.0,14.0,35,-99.99,,,-99.99,,2013-01-12 21:02:00,
2013-01-12 14:12:00,27.0,2.0,-100.00,SW,225,7.0,17.0,34,-99.99,,,-99.99,,2013-01-12 21:12:00,
2013-01-12 14:22:00,27.0,2.0,-100.00,SW,230,8.0,18.0,32,-99.99,,,-99.99,,2013-01-12 21:22:00,
2013-01-12 14:32:00,27.0,1.0,-100.00,SW,215,7.0,12.0,32,-99.99,,,-99.99,,2013-01-12 21:32:00,
2013-01-12 14:42:00,26.0,1.0,-100.00,SSE,160,4.0,16.0,32,-99.99,,,-99.99,,2013-01-12 21:42:00,
2013-01-12 14:52:00,26.0,1.0,-100.00,South,170,2.0,12.0,32,-99.99,,,-99.99,,2013-01-12 21:52:00,
2013-01-12 15:02:00,26.0,1.0,-100.00,South,170,2.0,12.0,32,-99.99,,,-99.99,,2013-01-12 22:02:00,
2013-01-12 15:12:00,25.0,0.0,-100.00,South,175,4.0,11.0,33,-99.99,,,-99.99,,2013-01-12 22:12:00,
2013-01-12 15:22:00,24.0,0.0,-100.00,South,190,7.0,13.0,34,-99.99,,,-99.99,,2013-01-12 22:22:00,
2013-01-12 15:32:00,24.0,0.0,-100.00,SSE,165,6.0,11.0,34,-99.99,,,-99.99,,2013-01-12 22:32:00,
2013-01-12 15:43:00,24.0,1.0,-100.00,South,190,7.0,12.0,34,-99.99,,,-99.99,,2013-01-12 22:43:00,
2013-01-12 15:52:00,24.0,0.0,-100.00,South,180,6.0,10.0,34,-99.99,,,-99.99,,2013-01-12 22:52:00,
2013-01-12 16:02:00,24.0,0.0,-100.00,South,180,6.0,10.0,34,-99.99,,,-99.99,,2013-01-12 23:02:00,
2013-01-12 16:12:00,23.0,-1.0,-100.00,South,180,2.0,9.0,35,-99.99,,,-99.99,,2013-01-12 23:12:00,
2013-01-12 16:22:00,21.0,-1.0,-100.00,SSW,195,4.0,9.0,36,-99.99,,,-99.99,,2013-01-12 23:22:00,
2013-01-12 16:32:00,19.0,-2.0,-100.00,SSW,205,2.0,9.0,37,-99.99,,,-99.99,,2013-01-12 23:32:00,
2013-01-12 16:42:00,18.0,-3.0,-100.00,SE,135,2.0,7.0,38,-99.99,,,-99.99,,2013-01-12 23:42:00,
2013-01-12 16:52:00,17.0,-3.0,-100.00,SSE,165,2.0,7.0,40,-99.99,,,-99.99,,2013-01-12 23:52:00,
2013-01-12 17:02:00,16.0,-3.0,-100.00,SE,145,0.0,5.0,41,-99.99,,,-99.99,,2013-01-13 00:02:00,
2013-01-12 17:12:00,14.0,-4.0,-100.00,NNW,340,2.0,3.0,43,-99.99,,,-99.99,,2013-01-13 00:12:00,
2013-01-12 17:22:00,13.0,-4.0,-100.00,NNW,330,1.0,2.0,46,-99.99,,,-99.99,,2013-01-13 00:22:00,
2013-01-12 17:32:00,12.0,-3.0,-100.00,North,5,2.0,5.0,49,-99.99,,,-99.99,,2013-01-13 00:32:00,
2013-01-12 17:42:00,12.0,-3.0,-100.00,North,5,2.0,5.0,49,-99.99,,,-99.99,,2013-01-13 00:42:00,
2013-01-12 17:52:00,11.0,-3.0,-100.00,North,10,1.0,3.0,51,-99.99,,,-99.99,,2013-01-13 00:52:00,
2013-01-12 18:02:00,10.0,-4.0,-100.00,NW,310,1.0,2.0,53,-99.99,,,-99.99,,2013-01-13 01:02:00,
2013-01-12 18:12:00,9.0,-4.0,-100.00,WNW,300,0.0,3.0,54,-99.99,,,-99.99,,2013-01-13 01:12:00,
2013-01-12 18:22:00,9.0,-3.0,-100.00,NNW,335,1.0,2.0,57,-99.99,,,-99.99,,2013-01-13 01:22:00,
2013-01-12 18:32:00,8.0,-3.0,-100.00,NNW,335,1.0,3.0,58,-99.99,,,-99.99,,2013-01-13 01:32:00,
2013-01-12 18:42:00,8.0,-3.0,-100.00,WNW,295,0.0,2.0,59,-99.99,,,-99.99,,2013-01-13 01:42:00,
2013-01-12 18:52:00,7.0,-3.0,-100.00,WNW,295,0.0,0.0,61,-99.99,,,-99.99,,2013-01-13 01:52:00,
2013-01-12 19:02:00,6.0,-3.0,-100.00,WNW,295,0.0,0.0,62,-99.99,,,-99.99,,2013-01-13 02:02:00,
2013-01-12 19:12:00,6.0,-3.0,-100.00,North,5,0.0,1.0,64,-99.99,,,-99.99,,2013-01-13 02:12:00,
2013-01-12 19:22:00,6.0,-3.0,-100.00,North,5,0.0,1.0,65,-99.99,,,-99.99,,2013-01-13 02:22:00,
2013-01-12 19:32:00,6.0,-3.0,-100.00,North,5,1.0,1.0,66,-99.99,,,-99.99,,2013-01-13 02:32:00,
2013-01-12 19:42:00,6.0,-2.0,-100.00,North,5,0.0,0.0,67,-99.99,,,-99.99,,2013-01-13 02:42:00,
2013-01-12 19:52:00,6.0,-2.0,-100.00,North,5,0.0,1.0,68,-99.99,,,-99.99,,2013-01-13 02:52:00,
2013-01-12 20:02:00,6.0,-2.0,-100.00,North,5,0.0,1.0,69,-99.99,,,-99.99,,2013-01-13 03:02:00,
2013-01-12 20:12:00,6.0,-2.0,-100.00,North,5,0.0,0.0,71,-99.99,,,-99.99,,2013-01-13 03:12:00,
2013-01-12 20:22:00,5.0,-2.0,-100.00,North,5,0.0,0.0,72,-99.99,,,-99.99,,2013-01-13 03:22:00,
2013-01-12 20:32:00,5.0,-2.0,-100.00,North,5,0.0,0.0,72,-99.99,,,-99.99,,2013-01-13 03:32:00,
2013-01-12 20:42:00,5.0,-2.0,-100.00,North,5,0.0,0.0,73,-99.99,,,-99.99,,2013-01-13 03:42:00,
2013-01-12 20:52:00,4.0,-2.0,-100.00,North,5,0.0,0.0,74,-99.99,,,-99.99,,2013-01-13 03:52:00,
2013-01-12 21:02:00,4.0,-2.0,-100.00,NNW,330,0.0,2.0,75,-99.99,,,-99.99,,2013-01-13 04:02:00,
2013-01-12 21:12:00,3.0,-3.0,-100.00,NNW,330,0.0,0.0,75,-99.99,,,-99.99,,2013-01-13 04:12:00,
2013-01-12 21:22:00,3.0,-3.0,-100.00,NNW,330,0.0,0.0,77,-99.99,,,-99.99,,2013-01-13 04:22:00,
2013-01-12 21:32:00,2.0,-3.0,-100.00,NNW,330,0.0,0.0,77,-99.99,,,-99.99,,2013-01-13 04:32:00,
2013-01-12 21:42:00,2.0,-3.0,-100.00,NNW,330,0.0,0.0,78,-99.99,,,-99.99,,2013-01-13 04:42:00,
2013-01-12 21:52:00,1.0,-3.0,-100.00,NE,35,0.0,1.0,79,-99.99,,,-99.99,,2013-01-13 04:52:00,
2013-01-12 22:03:00,1.0,-3.0,-100.00,NE,35,0.0,1.0,80,-99.99,,,-99.99,,2013-01-13 05:03:00,
2013-01-12 22:12:00,1.0,-3.0,-100.00,NE,35,0.0,1.0,80,-99.99,,,-99.99,,2013-01-13 05:12:00,
2013-01-12 22:22:00,1.0,-3.0,-100.00,NE,45,2.0,2.0,81,-99.99,,,-99.99,,2013-01-13 05:22:00,
2013-01-12 22:32:00,1.0,-3.0,-100.00,NE,45,0.0,1.0,81,-99.99,,,-99.99,,2013-01-13 05:32:00,
2013-01-12 22:42:00,2.0,-3.0,-100.00,NE,45,0.0,0.0,82,-99.99,,,-99.99,,2013-01-13 05:42:00,
2013-01-12 22:52:00,3.0,-1.0,-100.00,NE,45,0.0,0.0,82,-99.99,,,-99.99,,2013-01-13 05:52:00,
2013-01-12 23:02:00,3.0,-1.0,-100.00,NE,45,0.0,0.0,82,-99.99,,,-99.99,,2013-01-13 06:02:00,
2013-01-12 23:12:00,3.0,-1.0,-100.00,NE,40,0.0,0.0,83,-99.99,,,-99.99,,2013-01-13 06:12:00,
2013-01-12 23:22:00,4.0,0.0,-100.00,NE,40,0.0,0.0,83,-99.99,,,-99.99,,2013-01-13 06:22:00,
2013-01-12 23:32:00,4.0,0.0,-100.00,NE,40,0.0,1.0,83,-99.99,,,-99.99,,2013-01-13 06:32:00,
2013-01-12 23:42:00,3.0,0.0,-100.00,NE,40,0.0,0.0,83,-99.99,,,-99.99,,2013-01-13 06:42:00,
2013-01-12 23:52:00,2.0,-1.0,-100.00,NW,325,1.0,2.0,84,-99.99,,,-99.99,,2013-01-13 06:52:00,